Flag for Colombia Weather past 2 weeks in Bucaramanga, Colombia

Now
75 °F

Passing clouds.


Feels Like: 75 °F
Forecast: 68 / 87 °F
Wind: No wind

Location: Bucaramanga / Palonegro

Current Time: Jul 4, 2015 at 10:01:35 PM

Latest Report: Jul 4, 2015 at 9:00 PM


Visibility: N/A

Pressure: 29.94 "Hg (26.82 "Hg at 956m altitude)

Humidity: 83%

Dew point: 70 °F

Location of BucaramangaLocation

Historic Weather in Bucaramanga — Graph

°F

Bucaramanga temperature yesterday

Maximum temperature yesterday: 84 °F (at 10:00 AM)
Minimum temperature yesterday: 70 °F (at 6:00 AM)
Average temperature yesterday: 79 °F

Past Weeks' High & Low Weather Summary

 TemperatureHumidityPressure
High84 °F (Jun 26, 12:00 PM)100% (Jun 28, 6:00 AM)30.07 "Hg (Jun 28, 6:00 AM)
Low66 °F (Jun 21, 6:00 AM)43% (Jul 3, 10:00 AM)29.83 "Hg (Jul 3, 4:00 PM)
Average76 °F72%29.98 "Hg
* Reported Jun 19 9:00 PM — Jul 4 9:00 PM, Bucaramanga, Weather by CustomWeather, © 2015

Note: Actual official high and low records may vary slightly from our data, if they occured in-between our weather recording intervals... More about our weather records

Advertising

Bucaramanga weather history for previous 24 hours

 ConditionsComfort  
Time TempWeatherWind HumidityBarometerVisibility
9:00 PM
Sat, Jul 4
75 °FPassing clouds.No wind83%29.94 "HgN/A
8:00 PM75 °FPassing clouds.2 mph83%29.93 "HgN/A
7:00 PM77 °FPartly cloudy.2 mph79%29.91 "HgN/A
6:00 PM77 °FBroken clouds.6 mph74%29.90 "HgN/A
5:00 PM79 °FScattered showers. Broken clouds.7 mph70%29.86 "HgN/A
4:00 PM84 °FScattered clouds.7 mph58%29.85 "HgN/A
3:00 PM84 °FScattered clouds.8 mph55%29.86 "HgN/A
2:00 PM82 °FScattered clouds.12 mph58%29.89 "HgN/A
1:00 PM81 °FScattered clouds.12 mph62%29.91 "HgN/A
12:00 PM79 °FBroken clouds.7 mph65%29.92 "HgN/A
11:00 AM79 °FScattered clouds.9 mph65%29.93 "HgN/A
10:00 AM82 °FPassing clouds.7 mph55%29.95 "HgN/A
9:00 AM81 °FScattered clouds.No wind58%29.96 "HgN/A
8:00 AM77 °FScattered clouds.2 mph69%29.95 "HgN/A
7:00 AM73 °FScattered clouds.2 mph78%29.94 "HgN/A
6:00 AM72 °FScattered clouds.2 mph78%29.93 "HgN/A
11:00 PM
Fri, Jul 3
75 °FPassing clouds.6 mph74%29.93 "HgN/A
10:00 PM75 °FPassing clouds.5 mph74%29.91 "HgN/A
Weather by CustomWeather, © 2015

See weather overviewHow to use our weather pages